Check out our new BloomSky Weather System.

Active alerts

Houston, TX
  Details for Houston, TX Dense Fog Advisory


Thunder radar  blitzortung!


Rain radar more information rain snow radar


Visit our other weather sites:

Template documentation
and downloads

And another site



Weather Underground History page Text

Daily Summary for March 7, 2017 Units:  Metric    English   Both
« Previous Day
Next Day »
Daily Weekly Monthly Yearly Custom
  High: Low: Average:
Temperature: 27.3 °C 16.5 °C 21.7 °C
Dew Point: 23 °C 10.3 °C 18.4 °C
Humidity: 97 % 58 % 82 %
Wind Speed: 17.7 km/h 0 km/h 4.8 km/h
Wind Gust: 29 km/h - -
Wind:- - South
Pressure: 1024.9 hPa 1014.4 hPa -
Precipitation: 0 mm    
Historical Graphs
 
 
Tabular Data for March 7, 2017
Time Temperature Dew Point Pressure Wind Wind Speed Wind Gust Humidity Rainfall Rate (Hourly)
00:03 22.4 °C 21 °C 1014.4 hPa South 4.8 km/h 20.9 km/h 92 % 0 mm
00:08 22.3 °C 21.1 °C 1014.4 hPa SE 6.4 km/h 20.9 km/h 93 % 0 mm
00:13 22.3 °C 21.1 °C 1014.4 hPa SSW 8 km/h 20.9 km/h 93 % 0 mm
00:18 22.3 °C 21.1 °C 1014.4 hPa SSE 4.8 km/h 16.1 km/h 93 % 0 mm
00:23 22.3 °C 21.1 °C 1014.4 hPa SSW 4.8 km/h 16.1 km/h 93 % 0 mm
00:28 22.3 °C 21.1 °C 1014.8 hPa SE 3.2 km/h 16.1 km/h 93 % 0 mm
00:33 22.3 °C 21.1 °C 1014.8 hPa South 8 km/h 14.5 km/h 93 % 0 mm
00:38 22.3 °C 21.1 °C 1014.8 hPa East 4.8 km/h 14.5 km/h 93 % 0 mm
00:43 22.4 °C 21.2 °C 1014.8 hPa SE 8 km/h 14.5 km/h 93 % 0 mm
00:48 22.4 °C 21.2 °C 1014.8 hPa SSE 8 km/h 14.5 km/h 93 % 0 mm
00:53 22.4 °C 21.2 °C 1014.8 hPa SSE 6.4 km/h 14.5 km/h 93 % 0 mm
00:58 22.4 °C 21.2 °C 1014.8 hPa South 4.8 km/h 12.9 km/h 93 % 0 mm
01:03 22.4 °C 21.2 °C 1014.8 hPa SE 3.2 km/h 16.1 km/h 93 % 0 mm
01:08 22.3 °C 21.1 °C 1014.8 hPa SE 4.8 km/h 16.1 km/h 93 % 0 mm
01:13 22.3 °C 21.3 °C 1014.8 hPa SE 6.4 km/h 16.1 km/h 94 % 0 mm
01:18 22.3 °C 21.3 °C 1014.8 hPa SE 4.8 km/h 14.5 km/h 94 % 0 mm
01:23 22.3 °C 21.3 °C 1014.8 hPa SSE 3.2 km/h 14.5 km/h 94 % 0 mm
01:28 22.3 °C 21.3 °C 1014.8 hPa SSE 3.2 km/h 14.5 km/h 94 % 0 mm
01:33 22.3 °C 21.3 °C 1015.1 hPa SSE 6.4 km/h 14.5 km/h 94 % 0 mm
01:35 22.3 °C 21.3 °C 1014.8 hPa South 4.8 km/h 11.3 km/h 94 % 0 mm
01:40 22.3 °C 21.3 °C 1014.8 hPa SW 9.7 km/h 11.3 km/h 94 % 0 mm
01:45 22.3 °C 21.3 °C 1014.8 hPa SSE 3.2 km/h 11.3 km/h 94 % 0 mm
01:50 22.3 °C 21.3 °C 1014.8 hPa SSE 1.6 km/h 9.7 km/h 94 % 0 mm
01:55 22.3 °C 21.3 °C 1014.8 hPa South 4.8 km/h 9.7 km/h 94 % 0 mm
02:00 22.3 °C 21.3 °C 1014.8 hPa SSE 4.8 km/h 11.3 km/h 94 % 0 mm
02:05 22.3 °C 21.3 °C 1014.8 hPa ESE 4.8 km/h 12.9 km/h 94 % 0 mm
02:10 22.4 °C 21.4 °C 1014.8 hPa Calm   12.9 km/h 94 % 0 mm
02:15 22.4 °C 21.4 °C 1015.1 hPa SSW 8 km/h 12.9 km/h 94 % 0 mm
02:20 22.4 °C 21.4 °C 1015.1 hPa South 3.2 km/h 9.7 km/h 94 % 0 mm
02:25 22.4 °C 21.4 °C 1015.1 hPa SSE 3.2 km/h 9.7 km/h 94 % 0 mm
02:30 22.4 °C 21.4 °C 1015.1 hPa SSE 3.2 km/h 9.7 km/h 94 % 0 mm
02:35 22.4 °C 21.4 °C 1015.1 hPa SE 3.2 km/h 8 km/h 94 % 0 mm
02:40 22.4 °C 21.4 °C 1015.1 hPa South 3.2 km/h 8 km/h 94 % 0 mm
02:45 22.4 °C 21.6 °C 1015.1 hPa ESE 4.8 km/h 9.7 km/h 95 % 0 mm
02:50 22.4 °C 21.6 °C 1015.1 hPa SE 6.4 km/h 9.7 km/h 95 % 0 mm
02:55 22.4 °C 21.6 °C 1015.1 hPa ESE 3.2 km/h 9.7 km/h 95 % 0 mm
03:00 22.4 °C 21.4 °C 1015.1 hPa SE 3.2 km/h 9.7 km/h 94 % 0 mm
03:05 22.4 °C 21.4 °C 1015.1 hPa SSE 4.8 km/h 9.7 km/h 94 % 0 mm
03:10 22.4 °C 21.6 °C 1015.1 hPa South 3.2 km/h 9.7 km/h 95 % 0 mm
03:15 22.4 °C 21.6 °C 1015.1 hPa SSE 3.2 km/h 9.7 km/h 95 % 0 mm
03:20 22.4 °C 21.6 °C 1015.1 hPa SSE 3.2 km/h 9.7 km/h 95 % 0 mm
03:25 22.3 °C 21.5 °C 1015.1 hPa South 1.6 km/h 6.4 km/h 95 % 0 mm
03:30 22.3 °C 21.5 °C 1015.1 hPa ESE 3.2 km/h 6.4 km/h 95 % 0 mm
03:35 22.3 °C 21.5 °C 1015.1 hPa SSE 3.2 km/h 6.4 km/h 95 % 0 mm
03:41 22.3 °C 21.5 °C 1015.5 hPa SSE 4.8 km/h 6.4 km/h 95 % 0 mm
03:46 22.3 °C 21.5 °C 1015.5 hPa SSE 1.6 km/h 6.4 km/h 95 % 0 mm
03:51 22.3 °C 21.5 °C 1015.5 hPa SE 1.6 km/h 6.4 km/h 95 % 0 mm
03:56 22.3 °C 21.5 °C 1015.5 hPa SE 1.6 km/h 4.8 km/h 95 % 0 mm
04:01 22.3 °C 21.5 °C 1015.5 hPa ESE 4.8 km/h 4.8 km/h 95 % 0 mm
04:06 22.3 °C 21.5 °C 1015.5 hPa SE 3.2 km/h 6.4 km/h 95 % 0 mm
04:11 22.3 °C 21.5 °C 1015.5 hPa South 1.6 km/h 6.4 km/h 95 % 0 mm
04:16 22.3 °C 21.5 °C 1015.5 hPa SE 1.6 km/h 6.4 km/h 95 % 0 mm
04:21 22.3 °C 21.5 °C 1015.5 hPa SSE 3.2 km/h 4.8 km/h 95 % 0 mm
04:26 22.3 °C 21.5 °C 1015.5 hPa ESE 1.6 km/h 4.8 km/h 95 % 0 mm
04:31 22.3 °C 21.5 °C 1015.8 hPa SSE 3.2 km/h 4.8 km/h 95 % 0 mm
04:36 22.2 °C 21.4 °C 1015.8 hPa SE 1.6 km/h 4.8 km/h 95 % 0 mm
04:41 22.2 °C 21.4 °C 1015.8 hPa SE 3.2 km/h 4.8 km/h 95 % 0 mm
04:43 22.2 °C 21.4 °C 1015.8 hPa SSE 3.2 km/h 4.8 km/h 95 % 0 mm
04:48 22.2 °C 21.4 °C 1015.5 hPa SE 1.6 km/h 4.8 km/h 95 % 0 mm
04:53 22.2 °C 21.4 °C 1015.5 hPa SSE 1.6 km/h 8 km/h 95 % 0 mm
04:58 22.2 °C 21.4 °C 1015.5 hPa SSE 3.2 km/h 8 km/h 95 % 0 mm
05:03 22.2 °C 21.5 °C 1015.5 hPa SSE 6.4 km/h 8 km/h 96 % 0 mm
05:08 22.2 °C 21.5 °C 1015.5 hPa SE 3.2 km/h 11.3 km/h 96 % 0 mm
05:13 22.2 °C 21.5 °C 1015.5 hPa SSE 1.6 km/h 11.3 km/h 96 % 0 mm
05:18 22.1 °C 21.4 °C 1015.5 hPa SE 3.2 km/h 11.3 km/h 96 % 0 mm
05:24 22.1 °C 21.4 °C 1015.5 hPa SE 3.2 km/h 8 km/h 96 % 0 mm
05:29 22 °C 21.3 °C 1015.8 hPa SE 3.2 km/h 8 km/h 96 % 0 mm
05:34 22 °C 21.3 °C 1015.8 hPa South 3.2 km/h 8 km/h 96 % 0 mm
05:39 22 °C 21.3 °C 1015.8 hPa SSE 1.6 km/h 9.7 km/h 96 % 0 mm
05:44 21.9 °C 21.2 °C 1015.8 hPa SE 3.2 km/h 9.7 km/h 96 % 0 mm
05:47 21.9 °C 21.2 °C 1015.8 hPa SSE 1.6 km/h 9.7 km/h 96 % 0 mm
05:52 21.9 °C 21.2 °C 1015.8 hPa SSE 3.2 km/h 9.7 km/h 96 % 0 mm
05:57 21.9 °C 21.2 °C 1015.8 hPa SSE 3.2 km/h 9.7 km/h 96 % 0 mm
06:02 21.9 °C 21.2 °C 1016.1 hPa SSE 4.8 km/h 9.7 km/h 96 % 0 mm
06:07 21.9 °C 21.2 °C 1015.8 hPa SE 6.4 km/h 8 km/h 96 % 0 mm
06:12 21.9 °C 21.4 °C 1015.8 hPa SE 8 km/h 11.3 km/h 97 % 0 mm
06:17 22 °C 21.5 °C 1015.8 hPa SSE 4.8 km/h 11.3 km/h 97 % 0 mm
06:22 22 °C 21.5 °C 1015.8 hPa South 6.4 km/h 14.5 km/h 97 % 0 mm
06:28 22 °C 21.5 °C 1016.1 hPa SSE 6.4 km/h 14.5 km/h 97 % 0 mm
06:33 22 °C 21.5 °C 1016.1 hPa SSE 4.8 km/h 14.5 km/h 97 % 0 mm
06:38 22 °C 21.3 °C 1016.1 hPa South 6.4 km/h 12.9 km/h 96 % 0 mm
06:43 22 °C 21.3 °C 1016.1 hPa SE 8 km/h 14.5 km/h 96 % 0 mm
06:48 22.1 °C 21.4 °C 1016.1 hPa SSW 6.4 km/h 14.5 km/h 96 % 0 mm
06:53 22.1 °C 21.6 °C 1016.5 hPa SSE 6.4 km/h 14.5 km/h 97 % 0 mm
06:58 22.1 °C 21.4 °C 1016.5 hPa South 8 km/h 14.5 km/h 96 % 0 mm
07:03 22.2 °C 21.7 °C 1016.5 hPa SW 8 km/h 14.5 km/h 97 % 0 mm
07:08 22.2 °C 21.5 °C 1016.8 hPa SSE 4.8 km/h 14.5 km/h 96 % 0 mm
07:13 22.2 °C 21.5 °C 1016.5 hPa SSE 4.8 km/h 14.5 km/h 96 % 0 mm
07:18 22.3 °C 21.6 °C 1016.5 hPa South 9.7 km/h 12.9 km/h 96 % 0 mm
07:23 22.4 °C 21.7 °C 1016.8 hPa SSW 1.6 km/h 12.9 km/h 96 % 0 mm
07:28 22.4 °C 21.7 °C 1016.8 hPa SSW 4.8 km/h 12.9 km/h 96 % 0 mm
07:33 22.4 °C 21.7 °C 1017.2 hPa SSW 3.2 km/h 12.9 km/h 96 % 0 mm
07:38 22.4 °C 21.7 °C 1017.2 hPa SSE 3.2 km/h 9.7 km/h 96 % 0 mm
07:43 22.4 °C 21.7 °C 1017.2 hPa SSW 6.4 km/h 9.7 km/h 96 % 0 mm
07:48 22.6 °C 21.9 °C 1017.5 hPa SSE 1.6 km/h 9.7 km/h 96 % 0 mm
07:53 22.7 °C 22 °C 1017.5 hPa South 6.4 km/h 9.7 km/h 96 % 0 mm
07:58 22.7 °C 21.9 °C 1017.8 hPa SE 3.2 km/h 11.3 km/h 95 % 0 mm
08:03 22.8 °C 22 °C 1017.5 hPa SSE 4.8 km/h 11.3 km/h 95 % 0 mm
08:08 22.9 °C 22.1 °C 1017.8 hPa South 3.2 km/h 11.3 km/h 95 % 0 mm
08:13 22.9 °C 22.1 °C 1017.8 hPa SSE 6.4 km/h 11.3 km/h 95 % 0 mm
08:18 23.1 °C 22.3 °C 1018.2 hPa SSW 3.2 km/h 11.3 km/h 95 % 0 mm
08:23 23.2 °C 22.2 °C 1018.2 hPa South 1.6 km/h 11.3 km/h 94 % 0 mm
08:28 23.3 °C 22.3 °C 1018.2 hPa South 6.4 km/h 11.3 km/h 94 % 0 mm
08:33 23.4 °C 22.4 °C 1018.5 hPa SSW 6.4 km/h 8 km/h 94 % 0 mm
08:38 23.5 °C 22.3 °C 1018.5 hPa Calm   8 km/h 93 % 0 mm
08:43 23.6 °C 22.4 °C 1018.5 hPa SSE 6.4 km/h 8 km/h 93 % 0 mm
08:48 23.7 °C 22.3 °C 1018.5 hPa SE 8 km/h 8 km/h 92 % 0 mm
08:53 23.8 °C 22.4 °C 1018.8 hPa SSE 3.2 km/h 11.3 km/h 92 % 0 mm
08:58 24.1 °C 22.7 °C 1018.8 hPa SW 4.8 km/h 11.3 km/h 92 % 0 mm
09:03 24.4 °C 22.7 °C 1018.8 hPa South 4.8 km/h 11.3 km/h 90 % 0 mm
09:08 24.5 °C 22.6 °C 1018.8 hPa SSE 3.2 km/h 17.7 km/h 89 % 0 mm
09:13 24.8 °C 22.9 °C 1018.8 hPa SSW 4.8 km/h 17.7 km/h 89 % 0 mm
09:18 25.1 °C 22.8 °C 1018.8 hPa SW 8 km/h 17.7 km/h 87 % 0 mm
09:23 25.3 °C 23 °C 1018.8 hPa SSW 4.8 km/h 14.5 km/h 87 % 0 mm
09:26 25.3 °C 23 °C 1019.2 hPa SSW 4.8 km/h 12.9 km/h 87 % 0 mm
09:31 25.3 °C 22.8 °C 1019.2 hPa SSW 8 km/h 16.1 km/h 86 % 0 mm
09:36 25.1 °C 22.4 °C 1019.2 hPa SE 6.4 km/h 16.1 km/h 85 % 0 mm
09:41 25.1 °C 22.4 °C 1019.2 hPa WNW 4.8 km/h 16.1 km/h 85 % 0 mm
09:46 25.2 °C 22.5 °C 1019.2 hPa South 3.2 km/h 17.7 km/h 85 % 0 mm
09:51 25.2 °C 22.5 °C 1019.2 hPa SSW 3.2 km/h 17.7 km/h 85 % 0 mm
09:56 25.2 °C 22.3 °C 1019.2 hPa South 4.8 km/h 17.7 km/h 84 % 0 mm
10:01 25.1 °C 22 °C 1019.2 hPa SSE 4.8 km/h 17.7 km/h 83 % 0 mm
10:06 25.1 °C 22.2 °C 1019.2 hPa SW 4.8 km/h 17.7 km/h 84 % 0 mm
10:11 25.1 °C 22.2 °C 1019.5 hPa SW 9.7 km/h 17.7 km/h 84 % 0 mm
10:16 25.1 °C 22.2 °C 1019.2 hPa SW 6.4 km/h 17.7 km/h 84 % 0 mm
10:21 25.1 °C 22.2 °C 1019.5 hPa SSW 6.4 km/h 14.5 km/h 84 % 0 mm
10:26 25.3 °C 22.6 °C 1019.2 hPa SSW 4.8 km/h 16.1 km/h 85 % 0 mm
10:31 25.4 °C 22.3 °C 1019.5 hPa SSW 6.4 km/h 16.1 km/h 83 % 0 mm
10:36 25.4 °C 22.3 °C 1019.5 hPa SSW 6.4 km/h 16.1 km/h 83 % 0 mm
10:41 25.7 °C 22.8 °C 1019.5 hPa SSW 3.2 km/h 16.1 km/h 84 % 0 mm
10:46 26.1 °C 23 °C 1019.5 hPa SSW 1.6 km/h 14.5 km/h 83 % 0 mm
10:51 26.3 °C 22.8 °C 1019.5 hPa SSW 14.5 km/h 14.5 km/h 81 % 0 mm
10:56 26.2 °C 22.5 °C 1019.5 hPa SSW 6.4 km/h 16.1 km/h 80 % 0 mm
11:01 26.1 °C 22.4 °C 1019.5 hPa South 9.7 km/h 16.1 km/h 80 % 0 mm
11:06 26.1 °C 22.4 °C 1019.5 hPa SW 1.6 km/h 16.1 km/h 80 % 0 mm
11:11 26.3 °C 22.6 °C 1019.5 hPa South 3.2 km/h 11.3 km/h 80 % 0 mm
11:16 26.6 °C 22.7 °C 1019.2 hPa SW 9.7 km/h 12.9 km/h 79 % 0 mm
11:21 27.1 °C 22.7 °C 1019.2 hPa SW 6.4 km/h 17.7 km/h 77 % 0 mm
11:26 27.3 °C 22.5 °C 1019.2 hPa SW 1.6 km/h 17.7 km/h 75 % 0 mm
11:31 27.1 °C 22.1 °C 1019.2 hPa SSW 6.4 km/h 17.7 km/h 74 % 0 mm
11:36 27.1 °C 22.5 °C 1019.2 hPa SSE 4.8 km/h 12.9 km/h 76 % 0 mm
11:41 26.9 °C 22.3 °C 1019.5 hPa SSW 6.4 km/h 12.9 km/h 76 % 0 mm
11:46 26.8 °C 22.2 °C 1019.2 hPa SSW 6.4 km/h 11.3 km/h 76 % 0 mm
11:51 26.7 °C 22.1 °C 1019.2 hPa South 6.4 km/h 14.5 km/h 76 % 0 mm
11:56 26.6 °C 22.2 °C 1018.8 hPa SE 3.2 km/h 14.5 km/h 77 % 0 mm
12:01 26.4 °C 21.8 °C 1018.8 hPa NNE 4.8 km/h 14.5 km/h 76 % 0 mm
12:06 26.3 °C 21.9 °C 1018.8 hPa SW 4.8 km/h 12.9 km/h 77 % 0 mm
12:12 26.1 °C 21.7 °C 1018.8 hPa SW 3.2 km/h 12.9 km/h 77 % 0 mm
12:17 26 °C 21.9 °C 1018.8 hPa South 4.8 km/h 14.5 km/h 78 % 0 mm
12:22 25.9 °C 21.8 °C 1018.8 hPa South 1.6 km/h 16.1 km/h 78 % 0 mm
12:27 25.8 °C 21.9 °C 1018.8 hPa West 3.2 km/h 16.1 km/h 79 % 0 mm
12:32 25.7 °C 21.6 °C 1018.8 hPa SW 8 km/h 16.1 km/h 78 % 0 mm
12:37 25.7 °C 21.8 °C 1018.8 hPa West 4.8 km/h 11.3 km/h 79 % 0 mm
12:42 25.7 °C 21.8 °C 1018.5 hPa SW 6.4 km/h 11.3 km/h 79 % 0 mm
12:47 25.7 °C 21.8 °C 1018.8 hPa SSW 1.6 km/h 11.3 km/h 79 % 0 mm
12:52 25.8 °C 21.9 °C 1018.5 hPa SW 1.6 km/h 11.3 km/h 79 % 0 mm
12:57 25.8 °C 21.9 °C 1018.5 hPa WSW 3.2 km/h 11.3 km/h 79 % 0 mm
13:02 25.8 °C 22.1 °C 1018.5 hPa Calm   9.7 km/h 80 % 0 mm
13:07 25.8 °C 22.3 °C 1018.5 hPa SW 1.6 km/h 9.7 km/h 81 % 0 mm
13:12 25.7 °C 22 °C 1018.5 hPa NW 1.6 km/h 9.7 km/h 80 % 0 mm
13:17 25.7 °C 22.2 °C 1018.2 hPa SSW 1.6 km/h 8 km/h 81 % 0 mm
13:22 26 °C 22.9 °C 1018.5 hPa NNW 4.8 km/h 8 km/h 83 % 0 mm
13:27 26.1 °C 22.6 °C 1018.2 hPa NW 4.8 km/h 8 km/h 81 % 0 mm
13:32 26.3 °C 22.8 °C 1018.2 hPa SW 3.2 km/h 9.7 km/h 81 % 0 mm
13:37 26.6 °C 22.9 °C 1018.2 hPa WNW 4.8 km/h 9.7 km/h 80 % 0 mm
13:42 26.8 °C 22.8 °C 1018.2 hPa West 1.6 km/h 11.3 km/h 79 % 0 mm
13:47 27.1 °C 22.3 °C 1018.2 hPa NW 11.3 km/h 11.3 km/h 75 % 0 mm
13:52 27 °C 22.4 °C 1018.2 hPa SW 6.4 km/h 16.1 km/h 76 % 0 mm
13:57 26.7 °C 21.5 °C 1018.2 hPa NW 14.5 km/h 16.1 km/h 73 % 0 mm
14:02 26.6 °C 21.8 °C 1018.2 hPa NNW 4.8 km/h 19.3 km/h 75 % 0 mm
14:07 26.8 °C 21.3 °C 1018.2 hPa West 1.6 km/h 19.3 km/h 72 % 0 mm
14:12 27 °C 21.1 °C 1018.5 hPa NNW 6.4 km/h 19.3 km/h 70 % 0 mm
14:17 26.6 °C 20.9 °C 1018.5 hPa WNW 8 km/h 16.1 km/h 71 % 0 mm
14:22 25.4 °C 20.9 °C 1018.5 hPa NW 6.4 km/h 19.3 km/h 76 % 0 mm
14:27 24.4 °C 20.5 °C 1018.5 hPa North 8 km/h 19.3 km/h 79 % 0 mm
14:32 23.8 °C 20.3 °C 1018.5 hPa NW 12.9 km/h 19.3 km/h 81 % 0 mm
14:37 23.2 °C 20 °C 1018.2 hPa NNW 9.7 km/h 19.3 km/h 82 % 0 mm
14:42 22.7 °C 19.9 °C 1018.5 hPa NW 6.4 km/h 19.3 km/h 84 % 0 mm
14:47 22.6 °C 19.9 °C 1018.5 hPa NW 8 km/h 19.3 km/h 85 % 0 mm
14:52 22.3 °C 19.7 °C 1018.5 hPa NW 12.9 km/h 19.3 km/h 85 % 0 mm
14:57 22.1 °C 19.6 °C 1018.8 hPa West 8 km/h 16.1 km/h 86 % 0 mm
15:02 22.1 °C 19.6 °C 1018.5 hPa NNW 6.4 km/h 16.1 km/h 86 % 0 mm
15:07 22.1 °C 19.6 °C 1018.5 hPa NNW 4.8 km/h 16.1 km/h 86 % 0 mm
15:12 22.3 °C 19.7 °C 1018.5 hPa NNW 9.7 km/h 19.3 km/h 85 % 0 mm
15:17 22.3 °C 19.5 °C 1018.8 hPa NNW 6.4 km/h 19.3 km/h 84 % 0 mm
15:22 22.3 °C 19.3 °C 1018.8 hPa NNW 6.4 km/h 19.3 km/h 83 % 0 mm
15:27 22.1 °C 19.1 °C 1018.8 hPa North 9.7 km/h 19.3 km/h 83 % 0 mm
15:32 22 °C 19.2 °C 1018.5 hPa NNW 9.7 km/h 25.7 km/h 84 % 0 mm
15:37 22.1 °C 19.1 °C 1018.8 hPa NNW 8 km/h 25.7 km/h 83 % 0 mm
15:42 22 °C 19 °C 1018.8 hPa NW 9.7 km/h 25.7 km/h 83 % 0 mm
15:47 21.9 °C 18.7 °C 1018.8 hPa NNW 8 km/h 19.3 km/h 82 % 0 mm
15:52 21.9 °C 18.5 °C 1018.8 hPa NW 4.8 km/h 19.3 km/h 81 % 0 mm
15:57 21.9 °C 18.7 °C 1019.2 hPa NNE 6.4 km/h 16.1 km/h 82 % 0 mm
16:02 21.9 °C 18.5 °C 1019.5 hPa North 11.3 km/h 16.1 km/h 81 % 0 mm
16:07 21.8 °C 18.2 °C 1019.5 hPa North 17.7 km/h 17.7 km/h 80 % 0 mm
16:12 21.7 °C 18.1 °C 1019.5 hPa NW 4.8 km/h 17.7 km/h 80 % 0 mm
16:17 21.6 °C 18 °C 1019.9 hPa North 6.4 km/h 17.7 km/h 80 % 0 mm
16:22 21.6 °C 18 °C 1019.9 hPa NW 4.8 km/h 17.7 km/h 80 % 0 mm
16:27 21.4 °C 17.4 °C 1019.9 hPa NNW 8 km/h 16.1 km/h 78 % 0 mm
16:32 21.3 °C 17.1 °C 1020.2 hPa NNE 6.4 km/h 16.1 km/h 77 % 0 mm
16:37 21.2 °C 17 °C 1020.2 hPa NW 8 km/h 14.5 km/h 77 % 0 mm
16:42 21.1 °C 16.9 °C 1019.9 hPa NNE 6.4 km/h 14.5 km/h 77 % 0 mm
16:47 20.9 °C 16.5 °C 1019.9 hPa NNW 8 km/h 17.7 km/h 76 % 0 mm
16:52 20.7 °C 16.3 °C 1019.9 hPa North 14.5 km/h 19.3 km/h 76 % 0 mm
16:57 20.4 °C 16 °C 1020.2 hPa NNW 6.4 km/h 20.9 km/h 76 % 0 mm
17:02 20.3 °C 15.5 °C 1020.5 hPa NNW 12.9 km/h 20.9 km/h 74 % 0 mm
17:07 20 °C 14.4 °C 1020.9 hPa North 12.9 km/h 20.9 km/h 70 % 0 mm
17:12 19.8 °C 13.9 °C 1021.2 hPa NW 6.4 km/h 19.3 km/h 69 % 0 mm
17:17 19.6 °C 13.3 °C 1020.9 hPa NW 12.9 km/h 19.3 km/h 67 % 0 mm
17:22 19.4 °C 13.3 °C 1021.2 hPa North 6.4 km/h 22.5 km/h 68 % 0 mm
17:27 19.4 °C 13.1 °C 1021.2 hPa NNE 6.4 km/h 22.5 km/h 67 % 0 mm
17:32 19.3 °C 12.8 °C 1021.2 hPa NW 6.4 km/h 22.5 km/h 66 % 0 mm
17:37 19.2 °C 12.7 °C 1021.2 hPa NE 4.8 km/h 19.3 km/h 66 % 0 mm
17:42 19.2 °C 12.5 °C 1021.6 hPa North 8 km/h 19.3 km/h 65 % 0 mm
17:47 19.1 °C 11.9 °C 1021.6 hPa NNE 1.6 km/h 25.7 km/h 63 % 0 mm
17:52 18.9 °C 11 °C 1021.6 hPa NNW 12.9 km/h 25.7 km/h 60 % 0 mm
17:57 18.8 °C 10.4 °C 1021.9 hPa NE 12.9 km/h 29 km/h 58 % 0 mm
18:02 18.7 °C 10.3 °C 1021.9 hPa NNE 6.4 km/h 29 km/h 58 % 0 mm
18:07 18.7 °C 10.3 °C 1022.2 hPa North 9.7 km/h 29 km/h 58 % 0 mm
18:12 18.7 °C 10.5 °C 1022.2 hPa East 6.4 km/h 24.1 km/h 59 % 0 mm
18:17 18.6 °C 10.4 °C 1022.2 hPa NW 6.4 km/h 24.1 km/h 59 % 0 mm
18:22 18.5 °C 10.6 °C 1022.2 hPa NE 3.2 km/h 22.5 km/h 60 % 0 mm
18:27 18.4 °C 10.5 °C 1022.2 hPa East 3.2 km/h 22.5 km/h 60 % 0 mm
18:32 18.3 °C 10.6 °C 1022.6 hPa NE 3.2 km/h 22.5 km/h 61 % 0 mm
18:37 18.3 °C 10.9 °C 1022.9 hPa NNE 3.2 km/h 19.3 km/h 62 % 0 mm
18:42 18.3 °C 10.9 °C 1022.6 hPa NE 3.2 km/h 12.9 km/h 62 % 0 mm
18:47 18.3 °C 11.1 °C 1022.6 hPa NE 3.2 km/h 14.5 km/h 63 % 0 mm
18:52 18.3 °C 11.4 °C 1022.6 hPa NNW 1.6 km/h 14.5 km/h 64 % 0 mm
18:57 18.2 °C 11.5 °C 1022.6 hPa NNW 3.2 km/h 14.5 km/h 65 % 0 mm
19:02 18.2 °C 11.5 °C 1022.6 hPa NE 3.2 km/h 12.9 km/h 65 % 0 mm
19:08 18.1 °C 11.6 °C 1022.6 hPa WNW 3.2 km/h 12.9 km/h 66 % 0 mm
19:13 17.9 °C 11.5 °C 1022.9 hPa North 3.2 km/h 9.7 km/h 66 % 0 mm
19:18 17.9 °C 11.7 °C 1022.9 hPa NW 4.8 km/h 9.7 km/h 67 % 0 mm
19:23 17.8 °C 11.4 °C 1022.9 hPa NNW 4.8 km/h 16.1 km/h 66 % 0 mm
19:28 17.8 °C 11.4 °C 1022.6 hPa NNE 1.6 km/h 16.1 km/h 66 % 0 mm
19:33 17.7 °C 11.3 °C 1022.6 hPa NW 3.2 km/h 16.1 km/h 66 % 0 mm
19:38 17.7 °C 11.3 °C 1022.6 hPa Calm   14.5 km/h 66 % 0 mm
19:43 17.6 °C 11.4 °C 1022.9 hPa NNE 1.6 km/h 17.7 km/h 67 % 0 mm
19:48 17.6 °C 11.4 °C 1022.9 hPa NNE 1.6 km/h 17.7 km/h 67 % 0 mm
19:53 17.6 °C 11.4 °C 1022.9 hPa NW 1.6 km/h 17.7 km/h 67 % 0 mm
19:58 17.6 °C 11.4 °C 1022.9 hPa NNW 4.8 km/h 14.5 km/h 67 % 0 mm
20:03 17.5 °C 11.3 °C 1022.9 hPa NNW 4.8 km/h 14.5 km/h 67 % 0 mm
20:08 17.4 °C 11.2 °C 1022.9 hPa NNW 4.8 km/h 16.1 km/h 67 % 0 mm
20:13 17.3 °C 11.1 °C 1023.2 hPa ENE 4.8 km/h 17.7 km/h 67 % 0 mm
20:18 17.3 °C 11.3 °C 1023.2 hPa ENE 6.4 km/h 17.7 km/h 68 % 0 mm
20:23 17.2 °C 11.2 °C 1023.2 hPa East 1.6 km/h 17.7 km/h 68 % 0 mm
20:28 17.1 °C 11.1 °C 1023.2 hPa NNW 1.6 km/h 14.5 km/h 68 % 0 mm
20:33 17.1 °C 11.1 °C 1023.2 hPa North 1.6 km/h 9.7 km/h 68 % 0 mm
20:38 17 °C 11.3 °C 1023.6 hPa Calm   9.7 km/h 69 % 0 mm
20:43 17 °C 11.3 °C 1023.6 hPa NNW 1.6 km/h 9.7 km/h 69 % 0 mm
20:48 16.9 °C 11.2 °C 1023.6 hPa Calm   9.7 km/h 69 % 0 mm
20:53 16.9 °C 11.4 °C 1023.9 hPa NNW 1.6 km/h 9.7 km/h 70 % 0 mm
20:58 16.9 °C 11.4 °C 1023.9 hPa Calm   9.7 km/h 70 % 0 mm
21:03 16.8 °C 11.5 °C 1023.9 hPa NE 1.6 km/h 6.4 km/h 71 % 0 mm
21:08 16.7 °C 11.4 °C 1023.9 hPa NE 1.6 km/h 6.4 km/h 71 % 0 mm
21:13 16.6 °C 11.5 °C 1024.3 hPa ENE 1.6 km/h 6.4 km/h 72 % 0 mm
21:18 16.6 °C 11.5 °C 1024.3 hPa Calm   4.8 km/h 72 % 0 mm
21:23 16.6 °C 11.9 °C 1024.3 hPa ENE 4.8 km/h 6.4 km/h 74 % 0 mm
21:28 16.6 °C 11.9 °C 1024.3 hPa SE 3.2 km/h 8 km/h 74 % 0 mm
21:33 16.7 °C 12.2 °C 1024.3 hPa NNW 1.6 km/h 8 km/h 75 % 0 mm
21:38 16.7 °C 12.2 °C 1024.3 hPa NNE 1.6 km/h 8 km/h 75 % 0 mm
21:43 16.6 °C 12.1 °C 1024.3 hPa NNW 1.6 km/h 9.7 km/h 75 % 0 mm
21:48 16.6 °C 12.4 °C 1024.3 hPa ENE 1.6 km/h 9.7 km/h 76 % 0 mm
21:53 16.6 °C 12.4 °C 1024.6 hPa NNE 4.8 km/h 9.7 km/h 76 % 0 mm
21:58 16.6 °C 12.4 °C 1024.6 hPa North 3.2 km/h 6.4 km/h 76 % 0 mm
22:03 16.6 °C 12.4 °C 1024.6 hPa North 3.2 km/h 8 km/h 76 % 0 mm
22:08 16.6 °C 12.1 °C 1024.6 hPa NNE 1.6 km/h 8 km/h 75 % 0 mm
22:13 16.6 °C 12.1 °C 1024.6 hPa NE 4.8 km/h 8 km/h 75 % 0 mm
22:18 16.6 °C 11.9 °C 1024.6 hPa East 1.6 km/h 9.7 km/h 74 % 0 mm
22:23 16.6 °C 11.7 °C 1024.3 hPa NNE 4.8 km/h 9.7 km/h 73 % 0 mm
22:28 16.6 °C 11.5 °C 1024.6 hPa NNE 1.6 km/h 14.5 km/h 72 % 0 mm
22:33 16.6 °C 11.5 °C 1024.6 hPa ESE 3.2 km/h 14.5 km/h 72 % 0 mm
22:38 16.6 °C 11.3 °C 1024.6 hPa Calm   14.5 km/h 71 % 0 mm
22:43 16.7 °C 11.2 °C 1024.6 hPa Calm   12.9 km/h 70 % 0 mm
22:49 16.7 °C 11.2 °C 1024.6 hPa ENE 3.2 km/h 12.9 km/h 70 % 0 mm
22:54 16.7 °C 11 °C 1024.6 hPa Calm   12.9 km/h 69 % 0 mm
22:59 16.7 °C 11 °C 1024.3 hPa SE 3.2 km/h 12.9 km/h 69 % 0 mm
23:04 16.7 °C 11 °C 1024.3 hPa NE 4.8 km/h 8 km/h 69 % 0 mm
23:09 16.7 °C 11 °C 1024.3 hPa Calm   11.3 km/h 69 % 0 mm
23:14 16.7 °C 11 °C 1024.3 hPa NE 1.6 km/h 11.3 km/h 69 % 0 mm
23:19 16.7 °C 10.8 °C 1024.6 hPa NNE 4.8 km/h 11.3 km/h 68 % 0 mm
23:24 16.7 °C 10.5 °C 1024.6 hPa North 4.8 km/h 16.1 km/h 67 % 0 mm
23:29 16.6 °C 10.4 °C 1024.6 hPa East 3.2 km/h 16.1 km/h 67 % 0 mm
23:34 16.6 °C 10.4 °C 1024.6 hPa NE 6.4 km/h 16.1 km/h 67 % 0 mm
23:39 16.6 °C 10.4 °C 1024.6 hPa ENE 1.6 km/h 14.5 km/h 67 % 0 mm
23:44 16.6 °C 10.7 °C 1024.6 hPa NNW 9.7 km/h 12.9 km/h 68 % 0 mm
23:49 16.6 °C 10.4 °C 1024.6 hPa ENE 4.8 km/h 12.9 km/h 67 % 0 mm
23:54 16.5 °C 10.4 °C 1024.9 hPa East 1.6 km/h 12.9 km/h 67 % 0 mm
23:59 16.5 °C 10.6 °C 1024.6 hPa NE 1.6 km/h 12.9 km/h 68 % 0 mm
Spring, Texas: Villages of Bridgestone
Compliments of Weather Underground - 2.75 mb

Script developed by  Jim McMurry - jmcmurry@mwt.net Adapted for the template by  Wim van der Kuil - Leuven-Template.eu

You find our weather info also at:

UK Metoffice

WeatherCloud

Weather Underground

Mid-South Weather Network

AWEKAS

Citizen Weather Observer Program (CWOP)

HAMweather, WeatherForYou, PWS Weather

Equipment we use:

Weather-station
Davis Vantage Vue

Weather-program
Meteohub

Weather-server
Debian 7.9 x86 (Guest)

Provider
DreamHost

Davis Vantage Vue

Meteohub

Debian 7.9 x86 (Guest)

DreamHost